{"data":{"norad_id":62068,"intl_designator":"2024-217M","name":"STARLINK-11467 [DTC]","alt_names":[],"object_type":"PAYLOAD","status":"ACTIVE","operator":null,"country":"US","launch_date":"2024-11-24","launch_site_code":"AFWTR","launch_vehicle":null,"mission":null,"orbit_class":"UNKNOWN","rcs_meters":null,"size_class":null,"mass_kg":null,"dimensions":null,"purposes":["comms"],"wikipedia_slug":null,"has_3d_model":false,"image_url":null,"decayed_at":null,"tle_current":{"epoch":"2026-09-21T06:35:13.343136Z","epoch_age_seconds":114363,"freshness":"FRESH","line1":"1 62068U 24217M   26264.27445999  .00124033  00000+0  10109-2 0  9992","line2":"2 62068  53.1578 186.9943 0001008  68.1378 291.9748 15.69768522105899","mean_motion":15.69768522,"eccentricity":0.0001008,"inclination_deg":53.1578,"raan_deg":186.9943,"arg_perigee_deg":68.1378,"mean_anomaly_deg":291.9748,"bstar":0.0010109,"rev_number":10589,"period_min":91.733270212689,"perigee_km":358.88012827375,"apogee_km":360.23844784542,"semimajor_km":6737.6962880596,"source":"CELESTRAK","updated_at":"2026-09-22T09:00:49.493864Z"}}}